Vernal, UT

10:18 PM MST on November 16, 2019 (GMT -0700)
Vernal

Weather History for KVEL - June, 2019

Change the Weather History Date:

Thursday, June 6, 2019

  Actual Average Record
Temperature  
Mean Temperature 64 °F 63 °F  
Max Temperature 80 °F 77 °F 93 °F (1977)
Min Temperature 49 °F 48 °F 30 °F (1928)
Degree Days  
Heating Degree Days 0 4  
Month to date heating degree days 9 26  
Since 1 June heating degree days 9 26  
Since 1 July heating degree days 7490 7174  
Cooling Degree Days 0 2  
Month to date cooling degree days 1 7  
Year to date cooling degree days 2 16  
Since 1 June cooling degree days 1 7  
Growing Degree Days 14 (Base 50)    
Moisture  
Dew Point 43 °F    
Average Humidity 46    
Maximum Humidity 68    
Minimum Humidity 27    
Precipitation  
Precipitation 0.00 in 0.03 in 0.44 in (1975)
Month to date precipitation 0.00 0.18  
Year to date precipitation 7.42 3.59  
Sea Level Pressure  
Sea Level Pressure 29.85 in    
Wind  
Wind Speed 4 mph ()    
Max Wind Speed 24 mph    
Max Gust Speed 35 mph    
Visibility 10.0 miles    
Events      
T = Trace of Precipitation, MM = Missing Value Source: Averaged Metar Reports

Daily Weather History Graph

Daily Weather History Graph

Search for Another Location

Airport or City:

Astronomy

Jun. 06, 2019 Rise Set
Actual Time 5:48 AM MDT 8:45 PM MDT
Civil Twilight 5:15 AM MDT 9:18 PM MDT
Nautical Twilight 4:34 AM MDT 9:59 PM MDT
Astronomical Twilight 3:45 AM MDT 10:48 PM MDT
Moon 9:00 AM MDT (6/6) No Moon Set
Length of Visible Light 16h 02m
Length of Day
14h 57m
Waxing Crescent, 14% of the Moon is Illuminated
Jun 6
Waxing Crescent
Jun 10
First Quarter
Jun 17
Full
Jun 25
Last Quarter
Jul 2
New

Hourly Weather History & Observations

Time (MDT) Temp. Dew Point Humidity Pressure Visibility Wind Dir Wind Speed Gust Speed Precip Events Conditions
12:53 AM 55.9 °F 43.0 °F 62% 29.88 in 10.0 mi West 3.5 mph - N/A   Clear
1:53 AM 54.0 °F 43.0 °F 66% 29.88 in 10.0 mi WNW 4.6 mph - N/A   Clear
2:53 AM 55.0 °F 42.1 °F 62% 29.87 in 10.0 mi WNW 8.1 mph - N/A   Clear
3:53 AM 57.0 °F 39.9 °F 53% 29.86 in 10.0 mi Calm Calm - N/A   Clear
4:53 AM 52.0 °F 41.0 °F 66% 29.88 in 10.0 mi WNW 4.6 mph - N/A   Clear
5:53 AM 51.1 °F 39.9 °F 66% 29.90 in 10.0 mi WNW 3.5 mph - N/A   Clear
6:53 AM 55.0 °F 44.1 °F 67% 29.90 in 10.0 mi Calm Calm - N/A   Clear
7:53 AM 64.0 °F 43.0 °F 46% 29.89 in 10.0 mi Calm Calm - N/A   Clear
8:53 AM 66.0 °F 43.0 °F 43% 29.91 in 10.0 mi Calm Calm - N/A   Clear
9:53 AM 68.0 °F 45.0 °F 43% 29.90 in 10.0 mi South 5.8 mph - N/A   Clear
10:53 AM 70.0 °F 45.0 °F 41% 29.89 in 10.0 mi SSE 4.6 mph - N/A   Clear
11:53 AM 75.9 °F 42.1 °F 30% 29.87 in 10.0 mi Variable 3.5 mph - N/A   Clear
12:53 PM 75.9 °F 44.1 °F 32% 29.88 in 10.0 mi Variable 3.5 mph - N/A   Clear
1:53 PM 75.0 °F 43.0 °F 32% 29.86 in 10.0 mi West 4.6 mph - N/A   Clear
2:53 PM 78.1 °F 41.0 °F 27% 29.81 in 10.0 mi SW 8.1 mph - N/A   Clear
3:53 PM 77.0 °F 44.1 °F 31% 29.82 in 10.0 mi SW 10.4 mph - N/A   Clear
4:53 PM 75.0 °F 41.0 °F 29% 29.83 in 10.0 mi WNW 17.3 mph 34.5 mph N/A   Clear
5:53 PM 73.9 °F 41.0 °F 30% 29.82 in 10.0 mi WSW 10.4 mph - N/A   Clear
6:53 PM 73.9 °F 42.1 °F 32% 29.79 in 10.0 mi WNW 6.9 mph - N/A   Clear
7:53 PM 70.0 °F 45.0 °F 41% 29.79 in 9.0 mi West 3.5 mph - N/A   Clear
8:53 PM 68.0 °F 46.0 °F 45% 29.83 in 10.0 mi SW 12.7 mph - N/A   Clear
9:53 PM 66.0 °F 45.0 °F 47% 29.83 in 10.0 mi North 6.9 mph - N/A   Mostly Cloudy
10:53 PM 64.0 °F 46.0 °F 52% 29.80 in 10.0 mi NNW 5.8 mph - N/A   Scattered Clouds
11:53 PM 59.0 °F 46.9 °F 64% 29.80 in 10.0 mi SW 4.6 mph - N/A   Scattered Clouds